Hourly Weather Cobija

Today, 12 July, Sunday

Time Temperature Precipitation Wind Pressure Humidity
00:00 +22°C° 0 mm 0 mps 738 mmHg 78%
01:00 +21°C° 0 mm 0 mps 738 mmHg 79%
02:00 +21°C° 0 mm 0 mps 738 mmHg 80%
03:00 +21°C° 0 mm 0 mps 738 mmHg 81%
04:00 +23°C° 0 mm 1 mps 738 mmHg 82%
05:00 +23°C° 0 mm 1 mps 738 mmHg 81%
06:00 +23°C° 0 mm 1 mps 739 mmHg 80%
07:00 +24°C° 0 mm 1 mps 739 mmHg 79%
08:00 +26°C° 0 mm 1 mps 739 mmHg 70%
09:00 +29°C° 0 mm 1 mps 740 mmHg 60%
10:00 +32°C° 0 mm 1 mps 740 mmHg 51%
11:00 +33°C° 0 mm 1 mps 739 mmHg 47%
12:00 +34°C° 0 mm 1 mps 738 mmHg 43%
13:00 +35°C° 0 mm 1 mps 738 mmHg 39%
14:00 +35°C° 0 mm 1 mps 737 mmHg 41%
15:00 +34°C° 0 mm 1 mps 736 mmHg 44%
16:00 +32°C° 0 mm 0 mps 736 mmHg 46%
17:00 +29°C° 0 mm 0 mps 736 mmHg 52%
18:00 +27°C° 0 mm 0 mps 736 mmHg 59%
19:00 +25°C° 0 mm 0 mps 737 mmHg 65%
20:00 +24°C° 0 mm 0 mps 737 mmHg 66%
21:00 +24°C° 0 mm 0 mps 738 mmHg 68%
22:00 +23°C° 0 mm 0 mps 738 mmHg 70%
23:00 +23°C° 0 mm 0 mps 738 mmHg 71%

Tomorrow, 13 July, Monday

Time Temperature Precipitation Wind Pressure Humidity
00:00 +22°C° 0 mm 0 mps 738 mmHg 72%
01:00 +22°C° 0 mm 0 mps 738 mmHg 73%
02:00 +21°C° 0 mm 0 mps 738 mmHg 75%
03:00 +21°C° 0 mm 0 mps 738 mmHg 76%
04:00 +21°C° 0 mm 0 mps 738 mmHg 77%
05:00 +21°C° 0 mm 0 mps 738 mmHg 77%
06:00 +22°C° 0 mm 0 mps 739 mmHg 76%
07:00 +22°C° 0 mm 0 mps 740 mmHg 76%
08:00 +27°C° 0 mm 1 mps 740 mmHg 67%
09:00 +30°C° 0 mm 1 mps 741 mmHg 58%
10:00 +33°C° 0 mm 1 mps 741 mmHg 49%
11:00 +34°C° 0 mm 1 mps 740 mmHg 47%
12:00 +34°C° 0 mm 1 mps 739 mmHg 44%
13:00 +35°C° 0 mm 1 mps 738 mmHg 42%
14:00 +34°C° 0 mm 1 mps 738 mmHg 44%
15:00 +34°C° 0 mm 1 mps 737 mmHg 46%
16:00 +34°C° 0 mm 1 mps 736 mmHg 48%
17:00 +32°C° 0 mm 1 mps 737 mmHg 55%
18:00 +27°C° 0 mm 0 mps 737 mmHg 61%
19:00 +25°C° 0 mm 0 mps 737 mmHg 68%
20:00 +25°C° 0 mm 0 mps 738 mmHg 70%
21:00 +25°C° 0 mm 0 mps 739 mmHg 72%
22:00 +24°C° 0 mm 0 mps 739 mmHg 73%
23:00 +24°C° 0 mm 0 mps 739 mmHg 75%

Day after tomorrow, 14 July, Tuesday

Time Temperature Precipitation Wind Pressure Humidity
00:00 +23°C° 0 mm 0 mps 739 mmHg 76%
01:00 +23°C° 0 mm 0 mps 738 mmHg 77%
02:00 +22°C° 0.1 mm 0 mps 738 mmHg 81%
03:00 +22°C° 0.1 mm 0 mps 738 mmHg 84%
04:00 +21°C° 0.1 mm 0 mps 738 mmHg 88%
05:00 +22°C° 0 mm 0 mps 739 mmHg 87%
06:00 +22°C° 0 mm 0 mps 740 mmHg 86%
07:00 +23°C° 0 mm 0 mps 740 mmHg 86%
08:00 +25°C° 0.2 mm 0 mps 741 mmHg 78%
09:00 +28°C° 0.2 mm 0 mps 741 mmHg 70%
10:00 +30°C° 0.2 mm 0 mps 741 mmHg 62%
11:00 +33°C° 0.4 mm 1 mps 741 mmHg 58%
12:00 +33°C° 0.4 mm 1 mps 740 mmHg 53%
13:00 +34°C° 0.4 mm 1 mps 739 mmHg 49%
14:00 +34°C° 0 mm 1 mps 738 mmHg 48%
15:00 +33°C° 0 mm 1 mps 738 mmHg 48%
16:00 +31°C° 0 mm 0 mps 737 mmHg 48%
17:00 +29°C° 0 mm 0 mps 738 mmHg 56%
18:00 +27°C° 0 mm 0 mps 738 mmHg 64%
19:00 +25°C° 0 mm 0 mps 738 mmHg 72%
20:00 +24°C° 0 mm 0 mps 739 mmHg 75%
21:00 +24°C° 0 mm 0 mps 739 mmHg 78%
22:00 +23°C° 0 mm 0 mps 740 mmHg 80%
23:00 +23°C° 0 mm 0 mps 739 mmHg 82%

15 July, Wednesday

Time Temperature Precipitation Wind Pressure Humidity
00:00 +23°C° 0 mm 0 mps 739 mmHg 84%
01:00 +22°C° 0 mm 0 mps 739 mmHg 86%
02:00 +22°C° 0.4 mm 0 mps 739 mmHg 89%
03:00 +21°C° 0.4 mm 0 mps 739 mmHg 93%
04:00 +21°C° 0.4 mm 0 mps 739 mmHg 96%
05:00 +23°C° 0 mm 1 mps 739 mmHg 96%
06:00 +23°C° 0 mm 1 mps 740 mmHg 95%
07:00 +24°C° 0 mm 1 mps 741 mmHg 95%
08:00 +26°C° 0.1 mm 1 mps 741 mmHg 86%
09:00 +28°C° 0.1 mm 1 mps 741 mmHg 77%
10:00 +30°C° 0.1 mm 1 mps 741 mmHg 68%
11:00 +30°C° 0.9 mm 1 mps 740 mmHg 67%
12:00 +31°C° 0.9 mm 1 mps 739 mmHg 67%
13:00 +30°C° 0.9 mm 0 mps 738 mmHg 67%
14:00 +30°C° 0.1 mm 0 mps 738 mmHg 64%
15:00 +30°C° 0.1 mm 0 mps 737 mmHg 61%
16:00 +32°C° 0.1 mm 1 mps 737 mmHg 59%
17:00 +28°C° 0 mm 0 mps 737 mmHg 65%
18:00 +26°C° 0 mm 0 mps 737 mmHg 72%
19:00 +24°C° 0 mm 0 mps 738 mmHg 78%
20:00 +24°C° 0 mm 0 mps 738 mmHg 79%
21:00 +23°C° 0 mm 0 mps 738 mmHg 79%
22:00 +23°C° 0 mm 0 mps 739 mmHg 80%
23:00 +23°C° 0 mm 0 mps 739 mmHg 81%

16 July, Thursday

Time Temperature Precipitation Wind Pressure Humidity
00:00 +22°C° 0 mm 0 mps 739 mmHg 82%
01:00 +22°C° 0 mm 0 mps 739 mmHg 83%
02:00 +24°C° 0 mm 1 mps 738 mmHg 85%
03:00 +23°C° 0 mm 1 mps 738 mmHg 87%
04:00 +23°C° 0 mm 1 mps 738 mmHg 89%
05:00 +24°C° 0 mm 1 mps 739 mmHg 87%
06:00 +24°C° 0 mm 1 mps 740 mmHg 86%
07:00 +25°C° 0 mm 1 mps 740 mmHg 84%
08:00 +26°C° 0 mm 0 mps 740 mmHg 72%
09:00 +29°C° 0 mm 0 mps 741 mmHg 60%
10:00 +32°C° 0 mm 0 mps 741 mmHg 48%
11:00 +33°C° 0 mm 0 mps 740 mmHg 44%
12:00 +35°C° 0 mm 1 mps 740 mmHg 40%
13:00 +36°C° 0 mm 1 mps 739 mmHg 36%
14:00 +33°C° 0 mm 0 mps 738 mmHg 39%
15:00 +32°C° 0 mm 0 mps 738 mmHg 42%
16:00 +32°C° 0 mm 0 mps 737 mmHg 45%
17:00 +30°C° 0 mm 0 mps 738 mmHg 50%
18:00 +27°C° 0 mm 0 mps 738 mmHg 56%
19:00 +25°C° 0 mm 0 mps 738 mmHg 61%
20:00 +24°C° 0 mm 0 mps 738 mmHg 63%
21:00 +24°C° 0 mm 0 mps 738 mmHg 65%
22:00 +23°C° 0 mm 0 mps 739 mmHg 67%
23:00 +23°C° 0 mm 0 mps 739 mmHg 69%

17 July, Friday

Time Temperature Precipitation Wind Pressure Humidity
00:00 +23°C° 0 mm 0 mps 739 mmHg 70%
01:00 +22°C° 0 mm 0 mps 739 mmHg 71%
02:00 +22°C° 0 mm 0 mps 739 mmHg 73%
03:00 +22°C° 0 mm 0 mps 739 mmHg 75%
04:00 +21°C° 0 mm 0 mps 739 mmHg 76%
05:00 +22°C° 0 mm 0 mps 739 mmHg 76%
06:00 +22°C° 0 mm 0 mps 740 mmHg 75%
07:00 +22°C° 0 mm 0 mps 740 mmHg 74%
08:00 +26°C° 0 mm 0 mps 741 mmHg 64%
09:00 +29°C° 0 mm 0 mps 741 mmHg 54%
10:00 +34°C° 0 mm 1 mps 741 mmHg 43%
11:00 +35°C° 0 mm 1 mps 741 mmHg 39%
12:00 +34°C° 0 mm 0 mps 740 mmHg 36%
13:00 +35°C° 0 mm 0 mps 739 mmHg 32%
14:00 +34°C° 0 mm 0 mps 738 mmHg 35%
15:00 +33°C° 0 mm 0 mps 738 mmHg 38%
16:00 +32°C° 0 mm 0 mps 737 mmHg 42%
17:00 +30°C° 0 mm 0 mps 737 mmHg 47%
18:00 +27°C° 0 mm 0 mps 737 mmHg 53%
19:00 +25°C° 0 mm 0 mps 737 mmHg 58%
20:00 +25°C° 0 mm 0 mps 737 mmHg 60%
21:00 +24°C° 0 mm 0 mps 737 mmHg 61%
22:00 +23°C° 0 mm 0 mps 737 mmHg 63%
23:00 +23°C° 0 mm 0 mps 737 mmHg 64%
Show more